Regional Weather Roundup
Issued by NWS

Home | Current Version | Previous Version | Graphics & Text | Print | Product List | Glossary On
Versions: 1 2 3 4 5 6 7 8 9 10 11 12 13 14 15 16 17 18 19 20 21 22 23 24 25 26 27
970
ASUS45 KBOU 211107
RWRCO

WEATHER ROUNDUP FOR COLORADO
NATIONAL WEATHER SERVICE DENVER/BOULDER CO
500 AM MDT THU MAY 21 2015

NOTE: "FAIR" INDICATES FEW OR NO CLOUDS BELOW 12000 FEET WITH NO
SIGNIFICANT WEATHER AND/OR OBSTRUCTIONS TO VISIBILITY.

COZ001>005-013-030-031-211200-
...NORTHWEST COLORADO...

CITY           SKY/WX    TMP DP  RH WIND       PRES   REMARKS
CRAIG          CLEAR     34  32  92 CALM      30.13R
HAYDEN         CLEAR     37  32  81 E10       30.13R
MEEKER         CLEAR     37  33  85 E5        30.12R
MOUNT WERNER   NOT AVBL
STEAMBOAT SPGS CLEAR     35  32  91 CALM      30.15S
WALDEN         CLEAR     30  30 100 SE3       30.17F
$$

COZ006>008-011-211200-
...WEST CENTRAL VALLEYS...

CITY           SKY/WX    TMP DP  RH WIND       PRES   REMARKS
GRAND JUNCTION PTCLDY    48  40  73 SE3       30.01R
MONTROSE       MOCLDY    47  39  74 E8        30.07S
EAGLE          CLEAR     37  36  93 CALM      30.19R
RIFLE          CLEAR     40  35  83 CALM      30.08S
DELTA          NOT AVBL
NUCLA          MOCLDY    48  37  66 S3        30.09R
$$

COZ017>023-064>068-211200-
...SOUTHWEST COLORADO...

CITY           SKY/WX    TMP DP  RH WIND       PRES   REMARKS
DURANGO        CLOUDY    47  35  63 SE6       30.13S
CORTEZ         CLEAR     52  38  58 SW5       30.07R
PAGOSA SPRINGS CLOUDY    43  31  62 CALM      30.19S
TELLURIDE      CLOUDY    44  24  46 E6        30.23S
WOLF CREEK PAS NOT AVBL
$$

COZ009-010-012-014-032>034-037-058>063-211200-
...CENTRAL COLORADO...

CITY           SKY/WX    TMP DP  RH WIND       PRES   REMARKS
ASPEN          PTCLDY    35  29  78 SW5       30.16S WCI  31
BUENA VISTA    CLOUDY    39  37  92 E7        30.26S
COPPER MTN     CLEAR     34  23  64 S18G24    30.33S WCI  23
BERTHOUD PASS  FAIR      27  19  74 W22G28    30.35S WCI  12
COTTONWOOD PAS FOG       36  34  93 NE3       30.30S VSB 1/4
GUNNISON       PTCLDY    34  28  80 CALM      30.23S
KREMMLING      CLEAR     32  30  93 CALM      30.22S
LEADVILLE      CLOUDY    33  29  85 S3        30.28S
SALIDA         CLOUDY    41  40  95 CALM      30.33S
SUNLIGHT       CLEAR     36  27  69 CALM      30.28R
WILKERSON PASS FOG       30  28  93 SW8       30.33F VSB 1   WCI  23
$$

COZ069>075-211200-
...SAN LUIS VALLEY/SANGRE DE CRISTO MOUNTAINS...

CITY           SKY/WX    TMP DP  RH WIND       PRES   REMARKS
ALAMOSA        PTCLDY    43  39  86 SE7       30.20S
LA VETA PASS   CLOUDY   N/A N/A N/A SW7       30.30F
SAGUACHE       MOCLDY    37  34  87 N3        30.23S
$$

COZ035-036-038>040-211200-
...NORTHERN COLORADO FRONT RANGE...

CITY           SKY/WX    TMP DP  RH WIND       PRES   REMARKS
DENVER INTL AP MOCLDY    42  40  92 E7        30.22F
DMNS CITY PARK   N/A     41  38  91 N3        30.21F
AURORA         CLOUDY    39  39 100 NW3       30.22F
FRONT RANGE AP CLOUDY    43  41  93 SE10      30.23F
ERIE MUNI ARPT CLOUDY    42  41  95 CALM      30.23F
BOULDER MUN AP CLOUDY    41  41 100 CALM      30.22F FOG
CENTENNIAL     CLOUDY    40  39  97 NW7       30.21F
BROOMFIELD     CLOUDY    41  41 100 CALM      30.23F FOG
FORT COLLINS   CLOUDY    41  39  93 SE10      30.25S
LONGMONT       CLOUDY    44  42  94 E3        30.25F
$$

COZ041-046-047-076>085-087-088-211200-
...PIKES PEAK/PALMER DIVIDE AND SOUTHERN FOOTHILLS...

CITY           SKY/WX    TMP DP  RH WIND       PRES   REMARKS
COLO. SPRINGS  FOG       38  38 100 SE12      30.26F VSB 1/2
A. F. ACADEMY  MIX PCPN  37  37 100 SE9       30.25F FOG
ELLICOTT       NOT AVBL
FALCON         SNOW      36  36 100 S9        30.27F VSB 1/4
FORT CARSON    FOG       39  37  93 SE10      30.26F VSB 1
LIMON          CLOUDY    38  37  97 SE12      30.27F
MONUMENT HILL  CLOUDY    34  34 100 MISG      30.23F
TRINIDAD       CLOUDY    46  43  89 E3        30.22S
$$

COZ042>045-048>051-090-091-211200-
...NORTHEAST COLORADO...

CITY           SKY/WX    TMP DP  RH WIND       PRES   REMARKS
GREELEY ARPT   CLOUDY    41  37  87 SE12      30.25F
AKRON          CLOUDY    40  36  86 S10       30.27F
BURLINGTON     CLOUDY    42  37  82 S5        30.29F
WRAY           CLOUDY    44  43  97 CALM      30.30S
STERLING       CLOUDY    43  37  81 S3        30.26F
HOLYOKE        NOT AVBL
FORT MORGAN    CLOUDY    41  36  81 SE8       30.26F
$$

COZ086-089-092>099-211200-
...SOUTHEAST COLORADO...

CITY           SKY/WX    TMP DP  RH WIND       PRES   REMARKS
PUEBLO         CLOUDY    42  41  96 E9        30.26S FOG
LA JUNTA       CLOUDY    44  40  85 E14       30.26F
LAMAR          CLOUDY    44  40  85 SE7       30.27F
SPRINGFIELD      N/A     40  39  97 SE12      30.28R
$$



USA.gov is the U.S. government's official web portal to all federal, state and local government web resources and services.